Flag for U.S.A. Weather past 2 weeks in Hudson, Wisconsin, U.S.A.

Now
52 °F

Sunny.


Feels Like: 45 °F
Forecast: 33 / 50 °F
Wind: 30 mph from Northwest

Location: St. Paul Downtown Holman Field

Current Time: Mar 29, 2015 at 6:22:38 PM

Latest Report: Mar 29, 2015 at 5:53 PM


Visibility: 10 mi

Pressure: 29.83 "Hg

Humidity: 37%

Dew point: 26 °F

Location of HudsonLocation

Historic Weather in Hudson — Graph

°F

Hudson temperature yesterday

Maximum temperature yesterday: 42 °F (at 3:53 PM)
Minimum temperature yesterday: 21 °F (at 5:53 AM)
Average temperature yesterday: 32 °F

Past Weeks' High & Low Weather Summary

 TemperatureHumidityPressure
High68 °F (Mar 15, 4:53 PM)96% (Mar 24, 11:01 PM)30.53 "Hg (Mar 24, 11:01 PM)
Low19 °F (Mar 27, 5:53 AM)18% (Mar 17, 3:53 PM)29.57 "Hg (Mar 29, 10:53 AM)
Average37 °F58%30.14 "Hg
* Reported Mar 14 4:53 PM — Mar 29 4:53 PM, Hudson, Weather by CustomWeather, © 2015

Note: Actual official high and low records may vary slightly from our data, if they occured in-between our weather recording intervals... More about our weather records

Advertising

Hudson weather history for previous 24 hours

 ConditionsComfort  
Time TempWeatherWind HumidityBarometerVisibility
4:53 PM
Sun, Mar 29
53 °FScattered clouds.29 mph39%29.79 "Hg10 mi
3:53 PM53 °FPassing clouds.23 mph43%29.76 "Hg10 mi
2:53 PM51 °FBroken clouds.22 mph59%29.73 "Hg10 mi
1:53 PM46 °FMostly cloudy.26 mph79%29.71 "Hg10 mi
12:53 PM39 °FLight rain. Mostly cloudy.15 mph86%29.69 "Hg10 mi
11:53 AM45 °FLight rain. Mostly cloudy.25 mph82%29.60 "Hg6 mi
10:53 AM45 °FOvercast.10 mph74%29.57 "Hg10 mi
10:00 AM42 °FMostly cloudy.13 mph76%29.58 "Hg10 mi
8:53 AM37 °FOvercast.10 mph86%29.63 "Hg10 mi
7:53 AM35 °FMostly cloudy.12 mph85%29.66 "Hg10 mi
6:53 AM34 °FPassing clouds.15 mph85%29.69 "Hg10 mi
5:53 AM34 °FOvercast.14 mph85%29.74 "Hg10 mi
4:53 AM34 °FLight rain. Overcast.21 mph82%29.77 "Hg6 mi
3:53 AM36 °FLight rain. Partly cloudy.15 mph62%29.83 "Hg10 mi
2:53 AM35 °FClear.20 mph59%29.87 "Hg10 mi
1:53 AM36 °FClear.22 mph52%29.89 "Hg10 mi
12:53 AM36 °FClear.17 mph50%29.93 "Hg10 mi
11:53 PM
Sat, Mar 28
35 °FClear.14 mph59%29.95 "Hg10 mi
10:53 PM35 °FClear.16 mph59%30.00 "Hg10 mi
9:53 PM35 °FClear.15 mph59%30.04 "Hg10 mi
8:53 PM35 °FClear.13 mph56%30.08 "Hg10 mi
7:53 PM37 °FSunny.14 mph52%30.09 "Hg10 mi
6:53 PM39 °FSunny.14 mph48%30.11 "Hg10 mi
Weather by CustomWeather, © 2015

See weather overviewHow to use our weather pages